Location: Newark
(50.1751°N, 5.6239°W)
Time: 06:02:02
(UTC+00:00)

X-37B - Visible Passes

Search period start: 18 September 2021 00:00
Search period end: 28 September 2021 00:00
Orbit: 381 x 393 km, 45.0° (Epoch: 29 August)

Date Brightness Start Highest point End Pass type
(mag) Time Alt. Az. Time Alt. Az. Time Alt. Az.
22 Sep 3.3 04:56:22 10° S 04:57:39 12° SSE 04:58:56 10° SE visible
23 Sep 2.5 05:32:52 10° SW 05:35:25 22° SSE 05:37:59 10° ESE visible
24 Sep 2.8 04:36:10 15° S 04:37:14 17° SSE 04:39:24 10° ESE visible
25 Sep 2.1 05:12:46 13° SW 05:15:06 27° S 05:17:51 10° ESE visible
26 Sep 2.4 04:17:04 22° SSE 04:17:04 22° SSE 04:19:27 10° ESE visible
27 Sep 1.8 04:53:37 23° SW 04:54:48 31° S 04:57:39 10° ESE visible
